12-08-2022, 00:00:10,     99,    0.0,   18.3,   0.00,   0.00, 1018.1,   48.2, -999.0
12-08-2022, 00:00:19,     99,    0.0,   18.3,   0.00,   0.00, 1018.1,   48.1, -999.0
12-08-2022, 00:00:29,     99,    0.0,   18.3,   0.00,   0.00, 1018.2,   48.2, -999.0
12-08-2022, 00:00:38,     99,    0.0,   18.3,   0.00,   0.00, 1018.1,   48.2, -999.0
12-08-2022, 00:00:49,     99,    0.0,   18.3,   0.00,   0.00, 1018.1,   48.1, -999.0
12-08-2022, 00:00:58,    103,    0.0,   18.3,   0.00,   0.00, 1018.1,   48.2, -999.0
12-08-2022, 00:01:08,     99,    0.0,   18.3,   0.00,   0.00, 1018.1,   48.1, -999.0
12-08-2022, 00:01:18,     99,    0.0,   18.2,   0.00,   0.00, 1018.1,   48.1, -999.0
12-08-2022, 00:01:28,     99,    0.0,   18.2,   0.00,   0.00, 1018.1,   48.3, -999.0
12-08-2022, 00:01:38,     99,    0.0,   18.2,   0.00,   0.00, 1018.1,   48.3, -999.0
12-08-2022, 00:01:48,     99,    0.0,   18.2,   0.00,   0.00, 1018.1,   48.4, -999.0
12-08-2022, 00:01:58,    100,    0.0,   18.3,   0.00,   0.00, 1018.1,   48.2, -999.0
12-08-2022, 00:02:08,     99,    0.0,   18.3,   0.00,   0.00, 1018.1,   48.2, -999.0
12-08-2022, 00:02:18,     99,    0.0,   18.2,   0.00,   0.00, 1018.1,   48.3, -999.0
12-08-2022, 00:02:28,     99,    0.0,   18.3,   0.00,   0.00, 1018.1,   48.1, -999.0
12-08-2022, 00:02:38,     99,    0.0,   18.2,   0.00,   0.00, 1018.1,   48.0, -999.0
12-08-2022, 00:02:48,     99,    0.0,   18.2,   0.00,   0.00, 1018.1,   48.1, -999.0
12-08-2022, 00:02:58,     99,    0.0,   18.2,   0.00,   0.00, 1018.1,   48.1, -999.0
12-08-2022, 00:03:07,     99,    0.0,   18.3,   0.00,   0.00, 1018.1,   48.0, -999.0
12-08-2022, 00:03:18,     99,    0.0,   18.3,   0.00,   0.00, 1018.1,   48.1, -999.0
12-08-2022, 00:03:27,     98,    0.0,   18.2,   0.00,   0.00, 1018.1,   48.0, -999.0
12-08-2022, 00:03:37,     99,    0.0,   18.3,   0.00,   0.00, 1018.1,   48.0, -999.0
12-08-2022, 00:03:47,     99,    0.0,   18.1,   0.00,   0.00, 1018.1,   48.1, -999.0
12-08-2022, 00:03:57,     99,    0.0,   18.3,   0.00,   0.00, 1018.1,   48.1, -999.0
12-08-2022, 00:04:09,     99,    0.0,   18.2,   0.00,   0.00, 1018.1,   48.1, -999.0
12-08-2022, 00:04:17,     99,    0.0,   18.3,   0.00,   0.00, 1018.0,   48.1, -999.0
12-08-2022, 00:04:27,     99,    0.0,   18.2,   0.00,   0.00, 1018.1,   48.2, -999.0
12-08-2022, 00:04:37,     99,    0.0,   18.1,   0.00,   0.00, 1018.0,   48.1, -999.0
12-08-2022, 00:04:47,     99,    0.0,   18.2,   0.00,   0.00, 1018.0,   48.2, -999.0
12-08-2022, 00:04:57,     99,    0.0,   18.2,   0.00,   0.00, 1018.1,   48.1, -999.0
12-08-2022, 00:05:07,     99,    0.0,   18.2,   0.00,   0.00, 1018.0,   48.0, -999.0
12-08-2022, 00:05:17,     99,    0.0,   18.2,   0.00,   0.00, 1018.0,   48.1, -999.0
12-08-2022, 00:05:27,     99,    0.0,   18.2,   0.00,   0.00, 1018.0,   48.1, -999.0
12-08-2022, 00:05:36,     99,    0.0,   18.2,   0.00,   0.00, 1018.0,   48.1, -999.0
12-08-2022, 00:05:47,     99,    0.0,   18.2,   0.00,   0.00, 1018.0,   48.1, -999.0
12-08-2022, 00:05:57,     99,    0.0,   18.2,   0.00,   0.00, 1018.0,   48.3, -999.0
12-08-2022, 00:06:06,     99,    0.0,   18.2,   0.00,   0.00, 1018.0,   48.3, -999.0
12-08-2022, 00:06:16,     99,    0.0,   18.2,   0.00,   0.00, 1018.0,   48.2, -999.0
12-08-2022, 00:06:26,     99,    0.0,   18.2,   0.00,   0.00, 1018.0,   48.2, -999.0
12-08-2022, 00:06:36,     99,    0.0,   18.2,   0.00,   0.00, 1018.0,   48.3, -999.0
12-08-2022, 00:06:46,     99,    0.0,   18.2,   0.00,   0.00, 1018.0,   48.3, -999.0
12-08-2022, 00:06:56,     99,    0.0,   18.3,   0.00,   0.00, 1018.0,   48.3, -999.0
12-08-2022, 00:07:06,     99,    0.0,   18.2,   0.00,   0.00, 1018.0,   48.4, -999.0
12-08-2022, 00:07:16,     99,    0.0,   18.2,   0.00,   0.00, 1018.0,   48.3, -999.0
12-08-2022, 00:07:26,     99,    0.0,   18.2,   0.00,   0.00, 1018.0,   48.3, -999.0
12-08-2022, 00:07:36,     99,    0.0,   18.1,   0.00,   0.00, 1018.0,   48.4, -999.0
12-08-2022, 00:07:46,     99,    0.0,   18.2,   0.00,   0.00, 1018.0,   48.4, -999.0
12-08-2022, 00:07:56,     99,    0.0,   18.2,   0.00,   0.00, 1018.0,   48.4, -999.0
12-08-2022, 00:08:06,     99,    0.0,   18.1,   0.00,   0.00, 1018.0,   48.4, -999.0
12-08-2022, 00:08:16,     99,    0.0,   18.1,   0.00,   0.00, 1018.0,   48.5, -999.0
12-08-2022, 00:08:26,     99,    0.0,   18.2,   0.00,   0.00, 1018.0,   48.4, -999.0
12-08-2022, 00:08:35,     99,    0.0,   18.1,   0.00,   0.00, 1018.0,   48.4, -999.0
12-08-2022, 00:08:45,     99,    0.0,   18.1,   0.00,   0.00, 1018.0,   48.4, -999.0
12-08-2022, 00:08:56,     99,    0.0,   18.1,   0.00,   0.00, 1018.0,   48.5, -999.0
12-08-2022, 00:09:05,     99,    0.0,   18.1,   0.00,   0.00, 1018.0,   48.6, -999.0
12-08-2022, 00:09:15,     99,    0.0,   18.1,   0.00,   0.00, 1018.0,   48.6, -999.0
12-08-2022, 00:09:25,     99,    0.0,   18.0,   0.00,   0.00, 1018.0,   48.6, -999.0
12-08-2022, 00:09:35,     99,    0.0,   18.1,   0.00,   0.00, 1018.0,   48.7, -999.0
12-08-2022, 00:09:45,     99,    0.0,   18.1,   0.00,   0.00, 1018.0,   48.6, -999.0
12-08-2022, 00:09:55,     99,    0.0,   18.0,   0.00,   0.00, 1018.0,   48.7, -999.0
12-08-2022, 00:10:05,     99,    0.0,   18.0,   0.00,   0.00, 1018.0,   48.6, -999.0
12-08-2022, 00:10:15,     99,    0.0,   18.0,   0.00,   0.00, 1018.0,   48.7, -999.0
12-08-2022, 00:10:25,     99,    0.0,   18.0,   0.00,   0.00, 1018.0,   48.7, -999.0
12-08-2022, 00:10:35,     99,    0.0,   17.9,   0.00,   0.00, 1018.0,   48.6, -999.0
12-08-2022, 00:10:45,     99,    0.0,   18.0,   0.00,   0.00, 1018.0,   48.6, -999.0
12-08-2022, 00:10:55,     99,    0.0,   17.9,   0.00,   0.00, 1018.0,   48.7, -999.0
12-08-2022, 00:11:04,     99,    0.0,   18.0,   0.00,   0.00, 1018.0,   48.7, -999.0
12-08-2022, 00:11:14,     99,    0.0,   18.0,   0.00,   0.00, 1018.0,   48.9, -999.0
12-08-2022, 00:11:25,     99,    0.0,   18.0,   0.00,   0.00, 1018.0,   48.8, -999.0
12-08-2022, 00:11:34,     99,    0.0,   18.0,   0.00,   0.00, 1018.0,   48.6, -999.0
12-08-2022, 00:11:44,     99,    0.0,   18.0,   0.00,   0.00, 1018.0,   48.6, -999.0
12-08-2022, 00:11:55,     99,    0.0,   18.0,   0.00,   0.00, 1018.0,   48.7, -999.0
12-08-2022, 00:12:04,     99,    0.0,   18.0,   0.00,   0.00, 1018.0,   48.7, -999.0
12-08-2022, 00:12:14,    100,    0.0,   18.1,   0.00,   0.00, 1018.0,   48.6, -999.0
12-08-2022, 00:12:24,     99,    0.0,   18.0,   0.00,   0.00, 1018.0,   48.7, -999.0
12-08-2022, 00:12:34,     99,    0.0,   18.0,   0.00,   0.00, 1018.0,   48.6, -999.0
12-08-2022, 00:12:44,     99,    0.0,   18.0,   0.00,   0.00, 1018.0,   48.3, -999.0
12-08-2022, 00:12:54,     99,    0.0,   18.1,   0.00,   0.00, 1018.0,   48.1, -999.0
12-08-2022, 00:13:04,     99,    0.0,   18.0,   0.00,   0.00, 1018.0,   48.2, -999.0
12-08-2022, 00:13:14,     99,    0.0,   18.2,   0.00,   0.00, 1018.0,   48.3, -999.0
12-08-2022, 00:13:24,     99,    0.0,   18.3,   0.00,   0.00, 1018.0,   48.3, -999.0
12-08-2022, 00:13:34,    100,    0.0,   18.2,   0.00,   0.00, 1018.0,   48.2, -999.0
12-08-2022, 00:13:43,     99,    0.0,   18.2,   0.00,   0.00, 1018.0,   48.3, -999.0
12-08-2022, 00:13:54,     99,    0.0,   18.2,   0.00,   0.00, 1018.0,   48.3, -999.0
12-08-2022, 00:14:03,     99,    0.0,   18.2,   0.00,   0.00, 1018.0,   48.2, -999.0
12-08-2022, 00:14:13,     99,    0.0,   18.0,   0.00,   0.00, 1018.0,   48.2, -999.0
12-08-2022, 00:14:24,     99,    0.0,   18.1,   0.00,   0.00, 1018.0,   48.0, -999.0
12-08-2022, 00:14:33,     99,    0.0,   18.1,   0.00,   0.00, 1018.0,   48.1, -999.0
12-08-2022, 00:14:43,     99,    0.0,   18.1,   0.00,   0.00, 1018.0,   48.3, -999.0
12-08-2022, 00:14:53,     99,    0.0,   18.1,   0.00,   0.00, 1018.0,   48.3, -999.0
12-08-2022, 00:15:03,    100,    0.0,   18.1,   0.00,   0.00, 1018.0,   48.1, -999.0
12-08-2022, 00:15:13,     99,    0.0,   18.1,   0.00,   0.00, 1018.0,   48.0, -999.0
12-08-2022, 00:15:23,     99,    0.0,   18.1,   0.00,   0.00, 1018.0,   47.9, -999.0
12-08-2022, 00:15:33,     99,    0.0,   18.1,   0.00,   0.00, 1018.0,   48.0, -999.0
12-08-2022, 00:15:43,     99,    0.0,   18.2,   0.00,   0.00, 1018.0,   48.0, -999.0
12-08-2022, 00:15:53,     99,    0.0,   18.1,   0.00,   0.00, 1018.0,   48.0, -999.0
12-08-2022, 00:16:03,     99,    0.0,   18.1,   0.00,   0.00, 1018.0,   48.0, -999.0
12-08-2022, 00:16:13,     99,    0.0,   18.0,   0.00,   0.00, 1018.0,   48.0, -999.0
12-08-2022, 00:16:23,     99,    0.0,   18.0,   0.00,   0.00, 1018.0,   47.9, -999.0
12-08-2022, 00:16:33,     99,    0.0,   18.1,   0.00,   0.00, 1018.0,   47.8, -999.0
12-08-2022, 00:16:42,     99,    0.0,   18.1,   0.00,   0.00, 1018.0,   47.7, -999.0
12-08-2022, 00:16:53,     99,    0.0,   18.2,   0.00,   0.00, 1018.0,   47.7, -999.0
12-08-2022, 00:17:02,     99,    0.0,   18.1,   0.00,   0.00, 1018.0,   47.8, -999.0
12-08-2022, 00:17:12,     99,    0.0,   18.2,   0.00,   0.00, 1018.0,   47.6, -999.0
12-08-2022, 00:17:22,     99,    0.0,   18.2,   0.00,   0.00, 1018.0,   47.7, -999.0
12-08-2022, 00:17:32,    100,    0.0,   18.2,   0.00,   0.00, 1018.0,   47.7, -999.0
12-08-2022, 00:17:42,     99,    0.0,   18.2,   0.00,   0.00, 1018.0,   47.5, -999.0
12-08-2022, 00:17:52,     99,    0.0,   18.2,   0.00,   0.00, 1018.0,   47.5, -999.0
12-08-2022, 00:18:02,     99,    0.0,   18.2,   0.00,   0.00, 1018.0,   47.7, -999.0
12-08-2022, 00:18:12,     98,    0.0,   18.2,   0.00,   0.00, 1018.0,   47.5, -999.0
12-08-2022, 00:18:22,     99,    0.0,   18.2,   0.00,   0.00, 1018.0,   47.6, -999.0
12-08-2022, 00:18:32,     99,    0.0,   18.2,   0.00,   0.00, 1018.0,   47.7, -999.0
12-08-2022, 00:18:42,     99,    0.0,   18.1,   0.00,   0.00, 1018.0,   47.7, -999.0
12-08-2022, 00:18:52,     99,    0.0,   18.2,   0.00,   0.00, 1018.0,   47.6, -999.0
12-08-2022, 00:19:02,     99,    0.0,   18.2,   0.00,   0.00, 1018.0,   47.6, -999.0
12-08-2022, 00:19:11,     99,    0.0,   18.1,   0.00,   0.00, 1018.0,   47.7, -999.0
12-08-2022, 00:19:22,     99,    0.0,   18.1,   0.00,   0.00, 1018.0,   47.5, -999.0
12-08-2022, 00:19:31,     99,    0.0,   18.1,   0.00,   0.00, 1018.0,   47.8, -999.0
12-08-2022, 00:19:41,     99,    0.0,   18.2,   0.00,   0.00, 1018.0,   47.6, -999.0
12-08-2022, 00:19:51,     99,    0.0,   18.1,   0.00,   0.00, 1018.0,   47.8, -999.0
12-08-2022, 00:20:01,     99,    0.0,   18.1,   0.00,   0.00, 1018.0,   47.6, -999.0
12-08-2022, 00:20:11,     99,    0.0,   18.1,   0.00,   0.00, 1018.0,   47.8, -999.0
12-08-2022, 00:20:21,     99,    0.0,   18.1,   0.00,   0.00, 1018.0,   47.8, -999.0
12-08-2022, 00:20:31,     99,    0.0,   18.1,   0.00,   0.00, 1018.0,   47.8, -999.0
12-08-2022, 00:20:41,     99,    0.0,   18.1,   0.00,   0.00, 1018.0,   47.9, -999.0
12-08-2022, 00:20:51,     99,    0.0,   18.0,   0.00,   0.00, 1018.0,   47.8, -999.0
12-08-2022, 00:21:01,     99,    0.0,   18.1,   0.00,   0.00, 1018.0,   47.7, -999.0
12-08-2022, 00:21:11,     99,    0.0,   18.1,   0.00,   0.00, 1018.0,   47.8, -999.0
12-08-2022, 00:21:21,     99,    0.0,   18.1,   0.00,   0.00, 1018.0,   47.9, -999.0
12-08-2022, 00:21:31,     99,    0.0,   18.1,   0.00,   0.00, 1018.1,   48.0, -999.0
12-08-2022, 00:21:40,     48,    0.0,   18.1,   0.00,   0.00, 1018.0,   47.6, -999.0
12-08-2022, 00:21:51,     48,    0.0,   18.1,   0.00,   0.00, 1018.0,   47.6, -999.0
12-08-2022, 00:22:01,     48,    0.0,   18.1,   0.00,   0.00, 1018.0,   47.7, -999.0
12-08-2022, 00:22:10,     48,    0.0,   18.1,   0.00,   0.00, 1018.0,   48.0, -999.0
12-08-2022, 00:22:21,     48,    0.0,   18.1,   0.00,   0.00, 1018.0,   47.8, -999.0
12-08-2022, 00:22:30,     48,    0.0,   18.1,   0.00,   0.00, 1018.0,   47.7, -999.0
12-08-2022, 00:22:40,     48,    0.0,   18.1,   0.00,   0.00, 1018.0,   47.8, -999.0
12-08-2022, 00:22:50,     48,    0.0,   18.0,   0.00,   0.00, 1018.0,   47.8, -999.0
12-08-2022, 00:23:00,     48,    0.0,   18.1,   0.00,   0.00, 1018.0,   47.7, -999.0
12-08-2022, 00:23:10,     48,    0.0,   18.1,   0.00,   0.00, 1018.0,   47.8, -999.0
12-08-2022, 00:23:20,     48,    0.0,   18.1,   0.00,   0.00, 1018.0,   47.8, -999.0
12-08-2022, 00:23:30,     48,    0.0,   18.1,   0.00,   0.00, 1018.0,   47.7, -999.0
12-08-2022, 00:23:40,     48,    0.0,   18.1,   0.00,   0.00, 1018.0,   47.8, -999.0
12-08-2022, 00:23:50,     48,    0.0,   18.0,   0.00,   0.00, 1018.0,   47.6, -999.0
12-08-2022, 00:24:00,     48,    0.0,   18.1,   0.00,   0.00, 1018.0,   47.6, -999.0
12-08-2022, 00:24:10,     48,    0.0,   18.1,   0.00,   0.00, 1018.0,   47.7, -999.0
12-08-2022, 00:24:20,     48,    0.0,   18.1,   0.00,   0.00, 1018.0,   47.6, -999.0
12-08-2022, 00:24:30,     48,    0.0,   18.2,   0.00,   0.00, 1018.0,   47.7, -999.0
12-08-2022, 00:24:39,     48,    0.0,   18.1,   0.00,   0.00, 1018.0,   47.7, -999.0
12-08-2022, 00:24:49,     48,    0.0,   18.1,   0.00,   0.00, 1018.0,   47.7, -999.0
12-08-2022, 00:25:00,     48,    0.0,   18.2,   0.00,   0.00, 1018.0,   47.6, -999.0
12-08-2022, 00:25:09,     48,    0.0,   18.2,   0.00,   0.00, 1018.0,   47.4, -999.0
12-08-2022, 00:25:19,     48,    0.0,   18.2,   0.00,   0.00, 1018.0,   47.5, -999.0
12-08-2022, 00:25:29,     48,    0.0,   18.2,   0.00,   0.00, 1018.0,   47.5, -999.0
12-08-2022, 00:25:39,     48,    0.0,   18.2,   0.00,   0.00, 1018.0,   47.4, -999.0
12-08-2022, 00:25:49,     48,    0.0,   18.2,   0.00,   0.00, 1018.0,   47.3, -999.0
12-08-2022, 00:26:01,     48,    0.0,   18.1,   0.00,   0.00, 1018.0,   47.1, -999.0
12-08-2022, 00:26:09,     48,    0.0,   18.1,   0.00,   0.00, 1018.0,   47.3, -999.0
12-08-2022, 00:26:19,     48,    0.0,   18.2,   0.00,   0.00, 1018.0,   47.4, -999.0
12-08-2022, 00:26:29,     48,    0.0,   18.1,   0.00,   0.00, 1018.0,   47.3, -999.0
12-08-2022, 00:26:39,     48,    0.0,   18.1,   0.00,   0.00, 1018.0,   47.4, -999.0
12-08-2022, 00:26:49,     48,    0.0,   18.2,   0.00,   0.00, 1018.0,   47.4, -999.0
12-08-2022, 00:26:59,     48,    0.0,   18.1,   0.00,   0.00, 1018.0,   47.4, -999.0
12-08-2022, 00:27:09,     48,    0.0,   18.1,   0.00,   0.00, 1018.0,   47.4, -999.0
12-08-2022, 00:27:18,     48,    0.0,   18.1,   0.00,   0.00, 1018.0,   47.4, -999.0
12-08-2022, 00:27:29,     48,    0.0,   18.1,   0.00,   0.00, 1018.0,   47.4, -999.0
12-08-2022, 00:27:39,     48,    0.0,   18.1,   0.00,   0.00, 1018.0,   47.6, -999.0
12-08-2022, 00:27:48,     48,    0.0,   18.1,   0.00,   0.00, 1017.9,   47.6, -999.0
12-08-2022, 00:27:58,     48,    0.0,   18.1,   0.00,   0.00, 1018.0,   47.5, -999.0
12-08-2022, 00:28:08,     48,    0.0,   18.1,   0.00,   0.00, 1018.0,   47.3, -999.0
12-08-2022, 00:28:18,     48,    0.0,   18.0,   0.00,   0.00, 1017.9,   47.3, -999.0
12-08-2022, 00:28:28,     48,    0.0,   18.0,   0.00,   0.00, 1018.0,   47.5, -999.0
12-08-2022, 00:28:38,     48,    0.0,   18.1,   0.00,   0.00, 1018.0,   47.5, -999.0
12-08-2022, 00:28:48,     48,    0.0,   18.1,   0.00,   0.00, 1018.0,   47.4, -999.0
12-08-2022, 00:28:58,     48,    0.0,   18.1,   0.00,   0.00, 1017.9,   47.4, -999.0
12-08-2022, 00:29:08,     48,    0.0,   18.1,   0.00,   0.00, 1018.0,   47.4, -999.0
12-08-2022, 00:29:18,     48,    0.0,   18.1,   0.00,   0.00, 1018.0,   47.3, -999.0
12-08-2022, 00:29:28,     47,    0.0,   18.1,   0.00,   0.00, 1017.9,   47.5, -999.0
12-08-2022, 00:29:38,     48,    0.0,   18.0,   0.00,   0.00, 1018.0,   47.4, -999.0
12-08-2022, 00:29:47,     48,    0.0,   18.2,   0.00,   0.00, 1017.9,   47.3, -999.0
12-08-2022, 00:29:58,     48,    0.0,   18.2,   0.00,   0.00, 1017.9,   47.2, -999.0
12-08-2022, 00:30:08,     48,    0.0,   18.1,   0.00,   0.00, 1017.9,   47.5, -999.0
12-08-2022, 00:30:17,     48,    0.0,   18.1,   0.00,   0.00, 1017.9,   47.5, -999.0
12-08-2022, 00:30:27,     48,    0.0,   18.0,   0.00,   0.00, 1017.9,   47.4, -999.0
12-08-2022, 00:30:38,     48,    0.0,   18.1,   0.00,   0.00, 1017.9,   47.5, -999.0
12-08-2022, 00:30:47,     48,    0.0,   18.0,   0.00,   0.00, 1017.9,   47.5, -999.0
12-08-2022, 00:30:57,     48,    0.0,   18.0,   0.00,   0.00, 1017.9,   47.7, -999.0
12-08-2022, 00:31:07,     48,    0.0,   17.9,   0.00,   0.00, 1017.9,   47.6, -999.0
12-08-2022, 00:31:17,     48,    0.0,   18.0,   0.00,   0.00, 1017.9,   47.8, -999.0
12-08-2022, 00:31:27,     48,    0.0,   17.9,   0.00,   0.00, 1017.9,   47.9, -999.0
12-08-2022, 00:31:37,     48,    0.0,   17.9,   0.00,   0.00, 1017.9,   47.8, -999.0
12-08-2022, 00:31:47,     48,    0.0,   17.9,   0.00,   0.00, 1017.9,   48.0, -999.0
12-08-2022, 00:31:57,     48,    0.0,   17.8,   0.00,   0.00, 1017.9,   48.0, -999.0
12-08-2022, 00:32:07,     48,    0.0,   17.9,   0.00,   0.00, 1017.9,   48.1, -999.0
12-08-2022, 00:32:17,     48,    0.0,   17.9,   0.00,   0.00, 1017.9,   48.2, -999.0
12-08-2022, 00:32:27,     48,    0.0,   17.9,   0.00,   0.00, 1017.9,   48.1, -999.0
12-08-2022, 00:32:37,     48,    0.0,   17.8,   0.00,   0.00, 1017.9,   48.3, -999.0
12-08-2022, 00:32:46,     48,    0.0,   17.8,   0.00,   0.00, 1017.8,   48.3, -999.0
12-08-2022, 00:32:56,     48,    0.0,   17.8,   0.00,   0.00, 1017.8,   48.4, -999.0
12-08-2022, 00:33:07,     48,    0.0,   17.8,   0.00,   0.00, 1017.9,   48.5, -999.0
12-08-2022, 00:33:16,     48,    0.0,   17.7,   0.00,   0.00, 1017.9,   48.5, -999.0
12-08-2022, 00:33:26,     48,    0.0,   17.7,   0.00,   0.00, 1017.8,   48.7, -999.0
12-08-2022, 00:33:36,     48,    0.0,   17.7,   0.00,   0.00, 1017.9,   48.7, -999.0
12-08-2022, 00:33:46,     48,    0.0,   17.7,   0.00,   0.00, 1017.9,   48.8, -999.0
12-08-2022, 00:33:56,     48,    0.0,   17.7,   0.00,   0.00, 1017.9,   48.9, -999.0
12-08-2022, 00:34:06,     48,    0.0,   17.7,   0.00,   0.00, 1017.9,   48.8, -999.0
12-08-2022, 00:34:16,     48,    0.0,   17.7,   0.00,   0.00, 1017.9,   49.0, -999.0
12-08-2022, 00:34:26,     48,    0.0,   17.7,   0.00,   0.00, 1017.9,   48.9, -999.0
12-08-2022, 00:34:36,     48,    0.0,   17.7,   0.00,   0.00, 1017.8,   49.0, -999.0
12-08-2022, 00:34:46,     47,    0.0,   17.7,   0.00,   0.00, 1017.8,   49.1, -999.0
12-08-2022, 00:34:56,     48,    0.0,   17.7,   0.00,   0.00, 1017.8,   49.2, -999.0
12-08-2022, 00:35:06,     48,    0.0,   17.6,   0.00,   0.00, 1017.8,   49.2, -999.0
12-08-2022, 00:35:16,     48,    0.0,   17.6,   0.00,   0.00, 1017.9,   49.4, -999.0
12-08-2022, 00:35:25,     48,    0.0,   17.6,   0.00,   0.00, 1017.9,   49.4, -999.0
12-08-2022, 00:35:36,     48,    0.0,   17.6,   0.00,   0.00, 1017.8,   49.6, -999.0
12-08-2022, 00:35:45,     48,    0.0,   17.5,   0.00,   0.00, 1017.8,   49.6, -999.0
12-08-2022, 00:35:55,     48,    0.0,   17.5,   0.00,   0.00, 1017.8,   49.7, -999.0
12-08-2022, 00:36:06,     48,    0.0,   17.5,   0.00,   0.00, 1017.8,   49.8, -999.0
12-08-2022, 00:36:15,     48,    0.0,   17.4,   0.00,   0.00, 1017.8,   49.9, -999.0
12-08-2022, 00:36:25,     48,    0.0,   17.4,   0.00,   0.00, 1017.8,   49.9, -999.0
12-08-2022, 00:36:35,     48,    0.0,   17.5,   0.00,   0.00, 1017.8,   50.0, -999.0
12-08-2022, 00:36:45,     48,    0.0,   17.5,   0.00,   0.00, 1017.8,   50.2, -999.0
12-08-2022, 00:36:55,     48,    0.0,   17.4,   0.00,   0.00, 1017.8,   50.1, -999.0
12-08-2022, 00:37:05,     48,    0.0,   17.3,   0.00,   0.00, 1017.8,   50.3, -999.0
12-08-2022, 00:37:15,     48,    0.0,   17.4,   0.00,   0.00, 1017.8,   50.3, -999.0
12-08-2022, 00:37:25,     48,    0.0,   17.4,   0.00,   0.00, 1017.8,   50.4, -999.0
12-08-2022, 00:37:35,     48,    0.0,   17.4,   0.00,   0.00, 1017.8,   50.5, -999.0
12-08-2022, 00:37:45,     48,    0.0,   17.5,   0.00,   0.00, 1017.8,   50.4, -999.0
12-08-2022, 00:37:55,     48,    0.0,   17.4,   0.00,   0.00, 1017.8,   50.0, -999.0
12-08-2022, 00:38:05,     46,    0.0,   17.5,   0.00,   0.00, 1017.8,   50.4, -999.0
12-08-2022, 00:38:15,     48,    0.0,   17.5,   0.00,   0.00, 1017.9,   50.4, -999.0
12-08-2022, 00:38:24,     48,    0.0,   17.5,   0.00,   0.00, 1017.8,   50.5, -999.0
12-08-2022, 00:38:35,     48,    0.0,   17.5,   0.00,   0.00, 1017.8,   50.4, -999.0
12-08-2022, 00:38:44,     48,    0.0,   17.5,   0.00,   0.00, 1017.8,   50.0, -999.0
12-08-2022, 00:38:54,     48,    0.0,   17.4,   0.00,   0.00, 1017.8,   50.5, -999.0
12-08-2022, 00:39:04,     48,    0.0,   17.4,   0.00,   0.00, 1017.8,   49.8, -999.0
12-08-2022, 00:39:14,     48,    0.0,   17.5,   0.00,   0.00, 1017.8,   50.0, -999.0
12-08-2022, 00:39:24,     48,    0.0,   17.5,   0.00,   0.00, 1017.8,   50.2, -999.0
12-08-2022, 00:39:34,     48,    0.0,   17.5,   0.00,   0.00, 1017.8,   50.3, -999.0
12-08-2022, 00:39:44,     48,    0.0,   17.4,   0.00,   0.00, 1017.8,   50.5, -999.0
12-08-2022, 00:39:54,     48,    0.0,   17.4,   0.00,   0.00, 1017.8,   50.5, -999.0
12-08-2022, 00:40:04,     48,    0.0,   17.4,   0.00,   0.00, 1017.8,   50.5, -999.0
12-08-2022, 00:40:14,     48,    0.0,   17.5,   0.00,   0.00, 1017.8,   50.5, -999.0
12-08-2022, 00:40:24,     48,    0.0,   17.5,   0.00,   0.00, 1017.8,   50.3, -999.0
12-08-2022, 00:40:34,     48,    0.0,   17.5,   0.00,   0.00, 1017.8,   50.0, -999.0
12-08-2022, 00:40:44,     48,    0.0,   17.4,   0.00,   0.00, 1017.8,   50.1, -999.0
12-08-2022, 00:40:53,     48,    0.0,   17.5,   0.00,   0.00, 1017.8,   50.3, -999.0
12-08-2022, 00:41:04,     48,    0.0,   17.4,   0.00,   0.00, 1017.8,   50.3, -999.0
12-08-2022, 00:41:14,     48,    0.0,   17.4,   0.00,   0.00, 1017.8,   50.5, -999.0
12-08-2022, 00:41:23,     48,    0.0,   17.4,   0.00,   0.00, 1017.8,   50.1, -999.0
12-08-2022, 00:41:33,     48,    0.0,   17.4,   0.00,   0.00, 1017.8,   50.2, -999.0
12-08-2022, 00:41:43,     48,    0.0,   17.4,   0.00,   0.00, 1017.8,   50.2, -999.0
12-08-2022, 00:41:53,     48,    0.0,   17.4,   0.00,   0.00, 1017.8,   50.1, -999.0
12-08-2022, 00:42:03,     48,    0.0,   17.5,   0.00,   0.00, 1017.8,   49.9, -999.0
12-08-2022, 00:42:13,     48,    0.0,   17.5,   0.00,   0.00, 1017.8,   50.1, -999.0
12-08-2022, 00:42:23,     48,    0.0,   17.6,   0.00,   0.00, 1017.8,   50.2, -999.0
12-08-2022, 00:42:33,     48,    0.0,   17.6,   0.00,   0.00, 1017.8,   49.9, -999.0
12-08-2022, 00:42:43,     48,    0.0,   17.5,   0.00,   0.00, 1017.8,   50.1, -999.0
12-08-2022, 00:42:53,     48,    0.0,   17.5,   0.00,   0.00, 1017.8,   50.1, -999.0
12-08-2022, 00:43:03,     48,    0.0,   17.5,   0.00,   0.00, 1017.8,   50.0, -999.0
12-08-2022, 00:43:13,     48,    0.0,   17.5,   0.00,   0.00, 1017.8,   50.1, -999.0
12-08-2022, 00:43:22,     48,    0.0,   17.5,   0.00,   0.00, 1017.8,   49.9, -999.0
12-08-2022, 00:43:33,     48,    0.0,   17.5,   0.00,   0.00, 1017.8,   49.9, -999.0
12-08-2022, 00:43:43,     48,    0.0,   17.4,   0.00,   0.00, 1017.8,   50.1, -999.0
12-08-2022, 00:43:52,     48,    0.0,   17.5,   0.00,   0.00, 1017.8,   50.1, -999.0
12-08-2022, 00:44:02,     48,    0.0,   17.6,   0.00,   0.00, 1017.8,   50.0, -999.0
12-08-2022, 00:44:13,     48,    0.0,   17.5,   0.00,   0.00, 1017.8,   49.8, -999.0
12-08-2022, 00:44:22,     48,    0.0,   17.6,   0.00,   0.00, 1017.8,   50.0, -999.0
12-08-2022, 00:44:32,     48,    0.0,   17.5,   0.00,   0.00, 1017.8,   50.1, -999.0
12-08-2022, 00:44:42,     48,    0.0,   17.6,   0.00,   0.00, 1017.8,   50.1, -999.0
12-08-2022, 00:44:52,     48,    0.0,   17.6,   0.00,   0.00, 1017.7,   49.6, -999.0
12-08-2022, 00:45:02,     48,    0.0,   17.6,   0.00,   0.00, 1017.8,   49.7, -999.0
12-08-2022, 00:45:12,     48,    0.0,   17.5,   0.00,   0.00, 1017.8,   49.8, -999.0
12-08-2022, 00:45:22,     48,    0.0,   17.5,   0.00,   0.00, 1017.7,   49.7, -999.0
12-08-2022, 00:45:32,     48,    0.0,   17.6,   0.00,   0.00, 1017.8,   49.7, -999.0
12-08-2022, 00:45:42,     47,    0.0,   17.6,   0.00,   0.00, 1017.7,   49.6, -999.0
12-08-2022, 00:45:52,     48,    0.0,   17.6,   0.00,   0.00, 1017.8,   49.9, -999.0
12-08-2022, 00:46:02,     48,    0.0,   17.6,   0.00,   0.00, 1017.7,   49.8, -999.0
12-08-2022, 00:46:12,     47,    0.0,   17.6,   0.00,   0.00, 1017.7,   49.8, -999.0
12-08-2022, 00:46:21,     47,    0.0,   17.5,   0.00,   0.00, 1017.7,   49.7, -999.0
12-08-2022, 00:46:31,     48,    0.0,   17.5,   0.00,   0.00, 1017.7,   49.7, -999.0
12-08-2022, 00:46:42,     48,    0.0,   17.5,   0.00,   0.00, 1017.8,   49.7, -999.0